| time (UTC) | temp F | wind direction | speed MPH | gust MPH | rain 1hr in | rain 24hr in | rain mn in | humidity % | barometer mb |
| 20260905001552 | 64 | 302 | 0.0 | 10.0 | 0.00 | 0.02 | 0.01 | 87 | 1014.7 |
| 20260905000048 | 65 | 331 | 0.0 | 8.0 | 0.00 | 0.02 | 0.01 | 87 | 1014.8 |
| 20260904234548 | 65 | 327 | 1.0 | 5.0 | 0.00 | 0.02 | 0.01 | 87 | 1014.8 |
| 20260904233055 | 64 | 323 | 0.0 | 8.0 | 0.00 | 0.02 | 0.01 | 87 | 1014.8 |
| 20260904231542 | 64 | 296 | 0.0 | 6.0 | 0.00 | 0.02 | 0.01 | 87 | 1014.8 |
| 20260904230038 | 65 | 304 | 0.0 | 9.0 | 0.00 | 0.02 | 0.01 | 87 | 1014.7 |
| 20260904224541 | 64 | 1 | 1.0 | 9.0 | 0.00 | 0.02 | 0.01 | 86 | 1014.8 |
| 20260904223037 | 65 | 288 | 0.0 | 6.0 | 0.00 | 0.02 | 0.01 | 86 | 1015.0 |
| 20260904221524 | 64 | 295 | 0.0 | 10.0 | 0.00 | 0.02 | 0.01 | 86 | 1015.0 |
| 20260904220023 | 64 | 346 | 2.0 | 11.0 | 0.00 | 0.02 | 0.01 | 86 | 1015.0 |
| 20260904214534 | 64 | 304 | 2.0 | 12.0 | 0.00 | 0.02 | 0.01 | 83 | 1015.1 |
| 20260904213015 | 64 | 333 | 2.0 | 11.0 | 0.00 | 0.02 | 0.01 | 85 | 1015.0 |
| 20260904211514 | 64 | 338 | 1.0 | 11.0 | 0.00 | 0.02 | 0.01 | 85 | 1015.1 |
| 20260904210008 | 64 | 267 | 0.0 | 6.0 | 0.00 | 0.02 | 0.01 | 84 | 1015.0 |
| 20260904204504 | 64 | 302 | 0.0 | 9.0 | 0.00 | 0.02 | 0.01 | 84 | 1014.9 |
| 20260904203100 | 64 | 350 | 0.0 | 1.0 | 0.00 | 0.02 | 0.01 | 84 | 1015.0 |
| 20260904201602 | 64 | 327 | 1.0 | 8.0 | 0.00 | 0.02 | 0.01 | 84 | 1015.0 |
| 20260904200056 | 63 | 338 | 2.0 | 8.0 | 0.00 | 0.02 | 0.01 | 83 | 1015.0 |
| 20260904194547 | 62 | 288 | 0.0 | 3.0 | 0.00 | 0.02 | 0.01 | 83 | 1015.0 |
| 20260904193047 | 63 | 304 | 0.0 | 3.0 | 0.00 | 0.02 | 0.01 | 84 | 1015.0 |
| 20260904191538 | 62 | 351 | 0.0 | 0.0 | 0.00 | 0.02 | 0.01 | 84 | 1015.1 |
| 20260904190035 | 62 | 308 | 0.0 | 0.0 | 0.00 | 0.02 | 0.01 | 84 | 1015.1 |
| 20260904184529 | 61 | 301 | 0.0 | 0.0 | 0.00 | 0.02 | 0.01 | 84 | 1015.2 |
| 20260904183025 | 61 | 301 | 0.0 | 2.0 | 0.00 | 0.02 | 0.01 | 84 | 1015.1 |
| 20260904181521 | 61 | 337 | 0.0 | 2.0 | 0.00 | 0.02 | 0.01 | 87 | 1014.9 |
| 20260904180017 | 60 | 337 | 0.0 | 0.0 | 0.00 | 0.02 | 0.01 | 89 | 1015.0 |
| 20260904174513 | 60 | 331 | 0.0 | 2.0 | 0.00 | 0.02 | 0.01 | 91 | 1014.9 |
| 20260904173008 | 59 | 281 | 0.0 | 1.0 | 0.00 | 0.02 | 0.01 | 93 | 1014.9 |
| 20260904171508 | 59 | 341 | 0.0 | 1.0 | 0.00 | 0.02 | 0.01 | 93 | 1014.8 |
| 20260904170002 | 59 | 323 | 0.0 | 0.0 | 0.00 | 0.02 | 0.01 | 95 | 1014.6 |
| 20260904164605 | 58 | 325 | 0.0 | 0.0 | 0.00 | 0.04 | 0.01 | 96 | 1014.6 |
| 20260904163106 | 57 | 354 | 0.0 | 1.0 | 0.00 | 0.04 | 0.01 | 96 | 1014.5 |
| 20260904161601 | 57 | 5 | 0.0 | 0.0 | 0.00 | 0.04 | 0.01 | 97 | 1014.4 |
| 20260904160058 | 57 | 13 | 0.0 | 2.0 | 0.00 | 0.04 | 0.01 | 97 | 1014.4 |
| 20260904154558 | 57 | 22 | 0.0 | 0.0 | 0.00 | 0.04 | 0.01 | 97 | 1014.4 |
| 20260904153105 | 56 | 112 | 0.0 | 0.0 | 0.00 | 0.04 | 0.01 | 97 | 1014.5 |
| 20260904151555 | 56 | 112 | 0.0 | 0.0 | 0.00 | 0.04 | 0.01 | 98 | 1014.4 |
| 20260904150053 | 55 | 112 | 0.0 | 0.0 | 0.00 | 0.04 | 0.01 | 97 | 1014.1 |
| 20260904144550 | 55 | 112 | 0.0 | 0.0 | 0.00 | 0.06 | 0.01 | 98 | 1013.8 |
| 20260904143049 | 53 | 112 | 0.0 | 0.0 | 0.01 | 0.06 | 0.01 | 97 | 1013.6 |
| 20260904141608 | 53 | 112 | 0.0 | 0.0 | 0.01 | 0.06 | 0.01 | 97 | 1013.6 |
| 20260904140047 | 53 | 110 | 0.0 | 0.0 | 0.01 | 0.06 | 0.01 | 97 | 1013.4 |
| 20260904134546 | 53 | 110 | 0.0 | 0.0 | 0.01 | 0.07 | 0.01 | 97 | 1013.3 |
| 20260904133044 | 53 | 107 | 0.0 | 0.0 | 0.00 | 0.06 | 0.00 | 97 | 1013.1 |
| 20260904131601 | 53 | 106 | 0.0 | 0.0 | 0.00 | 0.06 | 0.00 | 97 | 1013.0 |
| 20260904130040 | 53 | 106 | 0.0 | 0.0 | 0.00 | 0.06 | 0.00 | 97 | 1012.8 |
| 20260904124543 | 53 | 106 | 0.0 | 0.0 | 0.00 | 0.07 | 0.00 | 97 | 1012.8 |
| 20260904123049 | 54 | 92 | 0.0 | 1.0 | 0.00 | 0.07 | 0.00 | 97 | 1012.7 |
| 20260904121536 | 54 | 31 | 0.0 | 0.0 | 0.00 | 0.07 | 0.00 | 97 | 1012.6 |
| 20260904120035 | 54 | 31 | 0.0 | 0.0 | 0.00 | 0.07 | 0.00 | 98 | 1012.6 |
| 20260904114542 | 55 | 31 | 0.0 | 0.0 | 0.00 | 0.07 | 0.00 | 97 | 1012.6 |
| 20260904113034 | 55 | 31 | 0.0 | 0.0 | 0.00 | 0.07 | 0.00 | 98 | 1012.5 |
| 20260904111534 | 55 | 31 | 0.0 | 0.0 | 0.00 | 0.07 | 0.00 | 98 | 1012.7 |
| 20260904110022 | 55 | 31 | 0.0 | 0.0 | 0.00 | 0.07 | 0.00 | 97 | 1012.6 |
| 20260904104530 | 55 | 31 | 0.0 | 0.0 | 0.00 | 0.07 | 0.00 | 98 | 1012.7 |
| 20260904103031 | 56 | 22 | 0.0 | 0.0 | 0.00 | 0.07 | 0.00 | 98 | 1012.7 |
| 20260904101528 | 56 | 21 | 0.0 | 0.0 | 0.00 | 0.07 | 0.00 | 98 | 1012.6 |
| 20260904100028 | 56 | 25 | 0.0 | 0.0 | 0.00 | 0.07 | 0.00 | 98 | 1012.8 |
| 20260904094527 | 55 | 25 | 0.0 | 0.0 | 0.00 | 0.07 | 0.00 | 97 | 1012.6 |
| 20260904093027 | 55 | 25 | 0.0 | 0.0 | 0.00 | 0.07 | 0.00 | 97 | 1012.5 |
| 20260904091530 | 55 | 94 | 0.0 | 0.0 | 0.00 | 0.07 | 0.00 | 97 | 1012.3 |
| 20260904090026 | 55 | 73 | 0.0 | 0.0 | 0.00 | 0.07 | 0.00 | 97 | 1012.5 |
| 20260904084524 | 56 | 71 | 0.0 | 0.0 | 0.00 | 0.07 | 0.00 | 98 | 1012.5 |
| 20260904083023 | 55 | 71 | 0.0 | 0.0 | 0.00 | 0.07 | 0.00 | 97 | 1012.5 |
| 20260904081521 | 55 | 16 | 0.0 | 0.0 | 0.00 | 0.07 | 0.00 | 97 | 1012.6 |
| 20260904080020 | 56 | 16 | 0.0 | 0.0 | 0.00 | 0.07 | 0.00 | 97 | 1012.3 |
| 20260904074521 | 57 | 16 | 0.0 | 0.0 | 0.00 | 0.07 | 0.00 | 97 | 1012.2 |
| 20260904073019 | 57 | 15 | 0.0 | 0.0 | 0.00 | 0.07 | 0.00 | 97 | 1012.2 |
| 20260904071529 | 58 | 15 | 0.0 | 0.0 | 0.00 | 0.07 | 0.00 | 97 | 1012.3 |
| 20260904070013 | 58 | 2 | 0.0 | 0.0 | 0.00 | 0.07 | 0.00 | 97 | 1012.3 |
| 20260904064509 | 59 | 338 | 0.0 | 0.0 | 0.00 | 0.07 | 0.07 | 98 | 1012.4 |
| 20260904063009 | 59 | 356 | 0.0 | 0.0 | 0.00 | 0.07 | 0.07 | 98 | 1012.4 |
| 20260904061508 | 59 | 346 | 0.0 | 2.0 | 0.00 | 0.07 | 0.07 | 97 | 1012.2 |
| 20260904060008 | 59 | 6 | 0.0 | 0.0 | 0.00 | 0.07 | 0.07 | 97 | 1012.3 |
| 20260904054507 | 59 | 330 | 0.0 | 0.0 | 0.00 | 0.07 | 0.07 | 98 | 1012.4 |
| 20260904053005 | 59 | 343 | 0.0 | 0.0 | 0.00 | 0.07 | 0.07 | 97 | 1012.6 |
| 20260904051505 | 60 | 358 | 0.0 | 0.0 | 0.00 | 0.07 | 0.07 | 97 | 1012.6 |
| 20260904050004 | 60 | 213 | 0.0 | 0.0 | 0.00 | 0.07 | 0.07 | 97 | 1012.6 |
| 20260904044505 | 60 | 213 | 0.0 | 0.0 | 0.00 | 0.07 | 0.07 | 97 | 1012.7 |
| 20260904043004 | 60 | 212 | 0.0 | 0.0 | 0.00 | 0.07 | 0.07 | 97 | 1012.5 |
| 20260904041502 | 60 | 210 | 0.0 | 0.0 | 0.01 | 0.07 | 0.07 | 97 | 1012.4 |
| 20260904040005 | 60 | 210 | 0.0 | 0.0 | 0.01 | 0.07 | 0.07 | 97 | 1012.4 |
| 20260904034502 | 60 | 210 | 0.0 | 0.0 | 0.01 | 0.07 | 0.07 | 97 | 1012.4 |
| 20260904033001 | 60 | 210 | 0.0 | 0.0 | 0.01 | 0.07 | 0.07 | 97 | 1012.3 |
| 20260904031501 | 59 | 210 | 0.0 | 0.0 | 0.00 | 0.06 | 0.06 | 97 | 1012.1 |
| 20260904030100 | 60 | 346 | 0.0 | 0.0 | 0.00 | 0.06 | 0.06 | 97 | 1012.1 |
| 20260904024603 | 60 | 246 | 0.0 | 0.0 | 0.00 | 0.06 | 0.06 | 97 | 1012.2 |
| 20260904023107 | 59 | 245 | 0.0 | 0.0 | 0.00 | 0.06 | 0.06 | 97 | 1012.2 |
| 20260904021600 | 59 | 277 | 0.0 | 0.0 | 0.00 | 0.06 | 0.06 | 97 | 1012.3 |
| 20260904020057 | 59 | 221 | 0.0 | 0.0 | 0.00 | 0.06 | 0.06 | 97 | 1012.3 |
| 20260904014556 | 60 | 221 | 0.0 | 1.0 | 0.00 | 0.06 | 0.06 | 97 | 1012.4 |
| 20260904013056 | 59 | 221 | 0.0 | 2.0 | 0.00 | 0.06 | 0.06 | 97 | 1012.4 |
| 20260904011554 | 59 | 255 | 0.0 | 0.0 | 0.00 | 0.06 | 0.06 | 97 | 1012.5 |
| 20260904010058 | 60 | 256 | 0.0 | 0.0 | 0.00 | 0.06 | 0.06 | 97 | 1012.5 |
| 20260904004559 | 60 | 195 | 0.0 | 0.0 | 0.00 | 0.06 | 0.06 | 97 | 1012.5 |
| 20260904003051 | 60 | 246 | 0.0 | 0.0 | 0.00 | 0.06 | 0.06 | 97 | 1012.6 |